When you browse on this site, cookies collect data to enhance your experience and personalize the content and advertising you see.
Visit our Privacy Policy to learn more. By continuing to use the site, you agree to this use of cookies and data.
  • In Portugal
  • List of Countries
  • For 7 days
  • Water Temperature
  • Weather Map
  • Weather Widgets
  • user-avatar
    Login

    Hourly Weather Tskhaltubo

    Today, 6 December, Friday

    Time Temperature Precipitation Wind Pressure Humidity
    00:00 +3°C° 0 mm 2 mps 755 mmHg 62%
    01:00 +3°C° 0 mm 2 mps 754 mmHg 60%
    02:00 +2°C° 0 mm 2 mps 754 mmHg 58%
    03:00 +2°C° 0 mm 2 mps 754 mmHg 56%
    04:00 +2°C° 0 mm 2 mps 754 mmHg 55%
    05:00 +2°C° 0 mm 2 mps 754 mmHg 53%
    06:00 +2°C° 0 mm 2 mps 754 mmHg 52%
    07:00 +3°C° 0 mm 2 mps 754 mmHg 50%
    08:00 +5°C° 0 mm 1 mps 753 mmHg 49%
    09:00 +6°C° 0 mm 1 mps 753 mmHg 48%
    10:00 +6°C° 0 mm 2 mps 753 mmHg 45%
    11:00 +8°C° 0 mm 2 mps 752 mmHg 42%
    12:00 +9°C° 0 mm 2 mps 752 mmHg 38%
    13:00 +9°C° 0 mm 2 mps 752 mmHg 41%
    14:00 +11°C° 0 mm 1 mps 751 mmHg 44%
    15:00 +11°C° 0 mm 1 mps 751 mmHg 47%
    16:00 +9°C° 0 mm 1 mps 751 mmHg 49%
    17:00 +8°C° 0 mm 1 mps 751 mmHg 52%
    18:00 +6°C° 0 mm 1 mps 751 mmHg 54%
    19:00 +6°C° 0 mm 1 mps 751 mmHg 55%
    20:00 +6°C° 0 mm 1 mps 752 mmHg 55%
    21:00 +5°C° 0 mm 1 mps 752 mmHg 55%
    22:00 +4°C° 0 mm 2 mps 751 mmHg 54%
    23:00 +4°C° 0 mm 2 mps 751 mmHg 53%

    Tomorrow, 7 December, Saturday

    Time Temperature Precipitation Wind Pressure Humidity
    00:00 +4°C° 0 mm 2 mps 751 mmHg 52%
    01:00 +4°C° 0 mm 2 mps 751 mmHg 51%
    02:00 +4°C° 0 mm 2 mps 750 mmHg 49%
    03:00 +4°C° 0 mm 2 mps 750 mmHg 48%
    04:00 +4°C° 0 mm 2 mps 750 mmHg 47%
    05:00 +4°C° 0 mm 2 mps 750 mmHg 47%
    06:00 +4°C° 0 mm 2 mps 749 mmHg 46%
    07:00 +5°C° 0 mm 2 mps 749 mmHg 46%
    08:00 +5°C° 0 mm 2 mps 749 mmHg 46%
    09:00 +7°C° 0 mm 1 mps 749 mmHg 46%
    10:00 +8°C° 0 mm 2 mps 749 mmHg 44%
    11:00 +10°C° 0 mm 2 mps 748 mmHg 42%
    12:00 +13°C° 0 mm 2 mps 747 mmHg 40%
    13:00 +13°C° 0 mm 2 mps 747 mmHg 43%
    14:00 +13°C° 0 mm 2 mps 746 mmHg 47%
    15:00 +13°C° 0 mm 2 mps 746 mmHg 50%
    16:00 +10°C° 0 mm 2 mps 746 mmHg 52%
    17:00 +9°C° 0 mm 2 mps 746 mmHg 53%
    18:00 +7°C° 0 mm 2 mps 746 mmHg 55%
    19:00 +7°C° 0 mm 3 mps 746 mmHg 55%
    20:00 +7°C° 0 mm 3 mps 746 mmHg 55%
    21:00 +7°C° 0 mm 3 mps 746 mmHg 54%
    22:00 +7°C° 0 mm 3 mps 746 mmHg 54%
    23:00 +7°C° 0 mm 3 mps 745 mmHg 54%

    Day after tomorrow, 8 December, Sunday

    Time Temperature Precipitation Wind Pressure Humidity
    00:00 +7°C° 0 mm 3 mps 745 mmHg 54%
    01:00 +7°C° 0 mm 3 mps 745 mmHg 54%
    02:00 +7°C° 0 mm 3 mps 745 mmHg 55%
    03:00 +5°C° 0 mm 3 mps 744 mmHg 55%
    04:00 +5°C° 0 mm 3 mps 744 mmHg 56%
    05:00 +6°C° 0 mm 2 mps 744 mmHg 57%
    06:00 +6°C° 0 mm 2 mps 743 mmHg 57%
    07:00 +7°C° 0 mm 2 mps 743 mmHg 58%
    08:00 +8°C° 0 mm 1 mps 743 mmHg 58%
    09:00 +9°C° 0 mm 1 mps 743 mmHg 58%
    10:00 +10°C° 0 mm 1 mps 742 mmHg 55%
    11:00 +11°C° 0 mm 1 mps 742 mmHg 52%
    12:00 +12°C° 0 mm 1 mps 742 mmHg 50%
    13:00 +12°C° 0 mm 1 mps 741 mmHg 53%
    14:00 +12°C° 0 mm 1 mps 741 mmHg 56%
    15:00 +11°C° 0 mm 1 mps 741 mmHg 59%
    16:00 +10°C° 0 mm 1 mps 742 mmHg 66%
    17:00 +9°C° 0 mm 1 mps 742 mmHg 72%
    18:00 +7°C° 0 mm 1 mps 742 mmHg 79%
    19:00 +6°C° 0 mm 0 mps 742 mmHg 80%
    20:00 +6°C° 0 mm 0 mps 743 mmHg 82%
    21:00 +5°C° 0 mm 0 mps 743 mmHg 83%
    22:00 +6°C° 0 mm 0 mps 743 mmHg 82%
    23:00 +6°C° 0 mm 0 mps 743 mmHg 82%

    9 December, Monday

    Time Temperature Precipitation Wind Pressure Humidity
    00:00 +6°C° 0 mm 0 mps 743 mmHg 82%
    01:00 +6°C° 0 mm 0 mps 743 mmHg 82%
    02:00 +6°C° 0 mm 0 mps 743 mmHg 82%
    03:00 +6°C° 0 mm 0 mps 743 mmHg 82%
    04:00 +6°C° 0 mm 0 mps 744 mmHg 82%
    05:00 +6°C° 0 mm 0 mps 744 mmHg 82%
    06:00 +6°C° 0 mm 0 mps 744 mmHg 83%
    07:00 +7°C° 0 mm 0 mps 744 mmHg 81%
    08:00 +7°C° 0 mm 0 mps 744 mmHg 79%
    09:00 +7°C° 0 mm 0 mps 744 mmHg 77%
    10:00 +8°C° 0 mm 0 mps 744 mmHg 71%
    11:00 +10°C° 0 mm 1 mps 743 mmHg 66%
    12:00 +11°C° 0 mm 1 mps 743 mmHg 60%
    13:00 +11°C° 0 mm 1 mps 743 mmHg 60%
    14:00 +11°C° 0 mm 1 mps 743 mmHg 59%
    15:00 +10°C° 0 mm 0 mps 742 mmHg 59%
    16:00 +10°C° 0 mm 1 mps 743 mmHg 64%
    17:00 +9°C° 0 mm 1 mps 743 mmHg 69%
    18:00 +7°C° 0 mm 1 mps 744 mmHg 74%
    19:00 +7°C° 0 mm 1 mps 744 mmHg 74%
    20:00 +7°C° 0 mm 1 mps 744 mmHg 74%
    21:00 +7°C° 0 mm 1 mps 744 mmHg 75%
    22:00 +7°C° 0 mm 1 mps 744 mmHg 73%
    23:00 +5°C° 0 mm 2 mps 744 mmHg 71%

    10 December, Tuesday

    Time Temperature Precipitation Wind Pressure Humidity
    00:00 +5°C° 0 mm 2 mps 744 mmHg 69%
    01:00 +5°C° 0 mm 2 mps 744 mmHg 67%
    02:00 +5°C° 0 mm 2 mps 744 mmHg 64%
    03:00 +5°C° 0 mm 2 mps 743 mmHg 61%
    04:00 +5°C° 0 mm 2 mps 743 mmHg 59%
    05:00 +5°C° 0 mm 2 mps 744 mmHg 56%
    06:00 +5°C° 0 mm 2 mps 744 mmHg 54%
    07:00 +6°C° 0 mm 2 mps 744 mmHg 52%
    08:00 +7°C° 0 mm 2 mps 744 mmHg 49%
    09:00 +7°C° 0 mm 3 mps 744 mmHg 47%
    10:00 +9°C° 0 mm 3 mps 743 mmHg 43%
    11:00 +12°C° 0 mm 2 mps 743 mmHg 39%
    12:00 +14°C° 0 mm 2 mps 742 mmHg 35%
    13:00 +14°C° 0 mm 2 mps 742 mmHg 38%
    14:00 +14°C° 0 mm 2 mps 742 mmHg 40%
    15:00 +14°C° 0 mm 2 mps 742 mmHg 42%
    16:00 +12°C° 0 mm 2 mps 742 mmHg 44%
    17:00 +10°C° 0 mm 2 mps 743 mmHg 47%
    18:00 +8°C° 0 mm 2 mps 743 mmHg 49%
    19:00 +8°C° 0 mm 2 mps 743 mmHg 49%
    20:00 +8°C° 0 mm 2 mps 744 mmHg 49%
    21:00 +7°C° 0 mm 2 mps 744 mmHg 50%
    22:00 +7°C° 0 mm 2 mps 744 mmHg 49%
    23:00 +7°C° 0 mm 2 mps 744 mmHg 48%

    11 December, Wednesday

    Time Temperature Precipitation Wind Pressure Humidity
    00:00 +7°C° 0 mm 2 mps 744 mmHg 48%
    01:00 +7°C° 0 mm 2 mps 744 mmHg 47%
    02:00 +7°C° 0 mm 2 mps 744 mmHg 47%
    03:00 +6°C° 0 mm 2 mps 744 mmHg 46%
    04:00 +6°C° 0 mm 2 mps 744 mmHg 46%
    05:00 +6°C° 0 mm 2 mps 745 mmHg 47%
    06:00 +6°C° 0 mm 2 mps 745 mmHg 47%
    07:00 +7°C° 0 mm 2 mps 745 mmHg 47%
    08:00 +7°C° 0 mm 2 mps 745 mmHg 46%
    09:00 +8°C° 0 mm 2 mps 745 mmHg 46%
    10:00 +10°C° 0 mm 2 mps 745 mmHg 43%
    11:00 +13°C° 0 mm 1 mps 744 mmHg 39%
    12:00 +14°C° 0 mm 1 mps 744 mmHg 36%
    13:00 +14°C° 0 mm 1 mps 744 mmHg 39%
    14:00 +13°C° 0 mm 0 mps 744 mmHg 42%
    15:00 +13°C° 0 mm 0 mps 744 mmHg 46%
    16:00 +12°C° 0 mm 1 mps 744 mmHg 47%
    17:00 +11°C° 0 mm 1 mps 745 mmHg 48%
    18:00 +10°C° 0 mm 1 mps 745 mmHg 49%
    19:00 +10°C° 0 mm 1 mps 745 mmHg 50%
    20:00 +9°C° 0 mm 1 mps 745 mmHg 50%
    21:00 +8°C° 0 mm 2 mps 745 mmHg 51%
    22:00 +9°C° 0 mm 1 mps 745 mmHg 51%
    23:00 +9°C° 0 mm 1 mps 745 mmHg 52%
    Show more